NOAA 16 DEB

Satellite information

Favourite Embed

Satellite Type and Status

DEBRISIN ORBIT

Key statistics

Satellite NOAA 16 DEB at a glance.

Uptime

9110

Days in orbit

Revolutions

≈ 14.6

Per day

Orbit

SSO

Sun Synchronous Orbit

Inclination

99.0

Latest

Satellite identification and parameters

Extended collection of information and parameters for NOAA 16 DEB.

Object identification

Identified? True

Debris? True

Object name: NOAA 16 DEB

International designator: 2000-055JR

Object number (NORAD): 41372

Object ID (CCSDS): 41372

Country: UNITED STATES OF AMERICA (US)

Current information (Y/N): Y

RCS size: SMALL

Orbital parameters

Period: 98.617 minutes

Inclination: 98.9756 deg

SMA: 7070.69 km

Apoapsis: 729.778 km

Periapsis: 655.331 km

RAAN: 149.6258 deg

Eccentricy: 0.0052645

Argument of periapsis: 139.0077 deg

Mean anomaly: 221.5097 deg

Mean motion: 14.60192402 rev/day

Mean motion (dot): 0.0001271 rev/day2

B* drag term: 0.0025937606 1/REarth

Two-line elements (TLE)

Creation date: Aug. 28, 2025, 11:13 p.m.

Reference frame: TEME

Reference center: EARTH

Epoch: Aug. 28, 2025, 5:16 a.m. UTC

TLE line 0: 0 NOAA 16 DEB

TLE line 1: 1 41372U 00055JR 25240.21971418 .00012710 00000-0 25938-2 0 9993

TLE line 2: 2 41372 98.9756 149.6258 0052645 139.0077 221.5097 14.60192402503190

Live tracking on map

Real-time ground track for satellite NOAA 16 DEB.

In-orbit conjunctions

A list of the most updated potential collisions computed for object NOAA 16 DEB.

Target Orbit TCA Probability of collision Miss distance Type
CZ-6A DEB LEO 2025-08-10 09:42:49 0.0002046783 53.0 (m) DEBRIS
ALEXIS LEO 2024-12-30 07:05:33 0.0001595993 523.0 (m) PAYLOAD
CZ-2D R/B SSO 2024-07-31 11:53:30 0.0001915848 969.0 (m) ROCKET BODY

Associated space launch

The NOAA K, L and M POES satellites begin the fifth generation of improved environmental monitoring in support of NOAA missions. The instrument payload has significant improvements and additions/deletions. The instrument changes have effected the spacecraft subsystems and data formats.

NOAA 16 DEB was lifted into orbit during the mission ‘Titan II SLV | NOAA 16’, on board a Titan II SLV space rocket.

The launch took place on Sept. 21, 2000, 10:22 a.m. from Space Launch Complex 4W.

For more information about the launch, click the button.

Launch to space Titan II SLV | NOAA 16
Titan II SLV | NOAA 16

Agency: N/A

Status: Launch Successful

Launch date: Sept. 21, 2000, 10:22 a.m. UTC

Rocket: Titan II SLV

Launch pad: Space Launch Complex 4W

Location: Vandenberg SFB, CA, USA

...

Latest news about this satellite

There are no fresh news available about this satellite. Check back as we update our databases every day.


Newsletter sign-up

Weekly statistics, charts and insights to help you stay on top of the space industry.